TimeEST,TemperatureF,Dew PointF,Humidity,Sea Level PressureIn,VisibilityMPH,Wind Direction,Wind SpeedMPH,Gust SpeedMPH,PrecipitationIn,Events,Conditions,WindDirDegrees,DateUTC
12:01 AM,24.8,1.4,36,30.09,10.0,Calm,Calm,-,N/A,,Overcast,0,2004-01-09 05:01:00
12:21 AM,24.8,1.4,36,30.08,10.0,Calm,Calm,-,N/A,,Overcast,0,2004-01-09 05:21:00
12:41 AM,24.8,1.4,36,30.07,10.0,SSE,3.5,-,N/A,,Overcast,150,2004-01-09 05:41:00
1:01 AM,24.8,3.2,40,30.06,10.0,Calm,Calm,-,N/A,Snow,Light Snow,0,2004-01-09 06:01:00
1:21 AM,24.8,3.2,40,30.06,10.0,Calm,Calm,-,N/A,,Overcast,0,2004-01-09 06:21:00
1:41 AM,24.8,8.6,50,30.06,10.0,Calm,Calm,-,N/A,Snow,Light Snow,0,2004-01-09 06:41:00
2:01 AM,24.8,8.6,50,30.05,7.0,SE,3.5,-,N/A,Snow,Light Snow,130,2004-01-09 07:01:00
2:21 AM,23.0,10.4,59,30.06,4.0,SSE,3.5,-,N/A,Snow,Light Snow,150,2004-01-09 07:21:00
2:41 AM,21.2,15.8,80,30.04,1.5,SE,3.5,-,N/A,Snow,Light Snow,140,2004-01-09 07:41:00
3:03 AM,19.4,15.8,86,30.04,1.5,SE,4.6,-,N/A,Snow,Light Snow,130,2004-01-09 08:03:00
3:21 AM,21.2,17.6,86,30.04,2.5,SSE,3.5,-,N/A,Snow,Light Snow,160,2004-01-09 08:21:00
3:41 AM,19.4,17.6,93,30.03,3.0,Calm,Calm,-,N/A,Snow,Light Snow,0,2004-01-09 08:41:00
4:01 AM,19.4,17.6,93,30.01,1.8,Calm,Calm,-,N/A,Snow,Light Snow,0,2004-01-09 09:01:00
4:22 AM,21.2,17.6,86,30.01,2.0,Calm,Calm,-,N/A,Snow,Light Snow,0,2004-01-09 09:22:00
4:41 AM,21.2,17.6,86,30.00,1.5,Calm,Calm,-,N/A,Snow,Light Snow,0,2004-01-09 09:41:00
5:01 AM,21.2,17.6,86,30.00,1.5,Calm,Calm,-,N/A,Snow,Light Snow,0,2004-01-09 10:01:00
5:21 AM,21.2,19.4,93,29.99,1.5,Calm,Calm,-,N/A,Snow,Light Snow,0,2004-01-09 10:21:00
5:41 AM,21.2,19.4,93,29.99,2.0,Calm,Calm,-,N/A,Snow,Light Snow,0,2004-01-09 10:41:00
6:01 AM,21.2,19.4,93,29.99,4.0,Calm,Calm,-,N/A,Snow,Light Snow,0,2004-01-09 11:01:00
6:22 AM,21.2,19.4,93,30.00,2.5,Calm,Calm,-,N/A,Snow,Light Snow,0,2004-01-09 11:22:00
6:41 AM,21.2,19.4,93,29.99,1.0,Calm,Calm,-,N/A,Snow,Snow,0,2004-01-09 11:41:00
7:01 AM,21.2,19.4,93,29.98,1.8,Calm,Calm,-,N/A,Snow,Light Snow,0,2004-01-09 12:01:00
7:21 AM,21.2,19.4,93,29.98,3.0,Calm,Calm,-,N/A,Snow,Light Snow,0,2004-01-09 12:21:00
7:41 AM,21.2,19.4,93,29.99,5.0,Calm,Calm,-,N/A,Snow,Light Snow,0,2004-01-09 12:41:00
8:01 AM,21.2,19.4,93,29.98,7.0,Calm,Calm,-,N/A,Snow,Light Snow,0,2004-01-09 13:01:00
8:21 AM,21.2,19.4,93,29.98,10.0,Calm,Calm,-,N/A,,Mostly Cloudy,0,2004-01-09 13:21:00
8:40 AM,21.2,19.4,93,29.99,5.0,Calm,Calm,-,N/A,,Mostly Cloudy,0,2004-01-09 13:40:00
9:00 AM,21.2,19.4,93,29.99,4.0,Calm,Calm,-,N/A,Snow,Light Snow,0,2004-01-09 14:00:00
9:20 AM,23.0,19.4,86,30.00,10.0,Calm,Calm,-,N/A,,Mostly Cloudy,0,2004-01-09 14:20:00
9:40 AM,23.0,19.4,86,30.01,7.0,Calm,Calm,-,N/A,,Mostly Cloudy,0,2004-01-09 14:40:00
10:00 AM,24.8,19.4,80,30.01,4.0,Calm,Calm,-,N/A,Snow,Light Snow,0,2004-01-09 15:00:00
10:20 AM,24.8,21.2,86,30.01,5.0,East,3.5,-,N/A,Snow,Light Snow,90,2004-01-09 15:20:00
10:40 AM,24.8,19.4,80,30.00,10.0,Calm,Calm,-,N/A,,Overcast,0,2004-01-09 15:40:00
11:00 AM,26.6,21.2,80,30.01,10.0,NNE,3.5,-,N/A,,Overcast,20,2004-01-09 16:00:00
11:21 AM,26.6,23.0,86,30.00,10.0,Calm,Calm,-,N/A,,Overcast,0,2004-01-09 16:21:00
11:41 AM,26.6,23.0,86,30.00,7.0,North,3.5,-,N/A,,Overcast,360,2004-01-09 16:41:00
12:00 PM,28.4,21.2,74,29.99,7.0,North,5.8,-,N/A,,Overcast,350,2004-01-09 17:00:00
12:20 PM,26.6,23.0,86,29.99,7.0,North,3.5,-,N/A,,Overcast,350,2004-01-09 17:20:00
12:40 PM,26.6,23.0,86,29.99,7.0,NNW,5.8,-,N/A,,Overcast,340,2004-01-09 17:40:00
1:00 PM,26.6,23.0,86,29.99,7.0,North,5.8,-,N/A,,Overcast,350,2004-01-09 18:00:00
1:20 PM,26.6,23.0,86,29.98,10.0,North,5.8,-,N/A,,Overcast,350,2004-01-09 18:20:00
1:40 PM,26.6,23.0,86,29.97,7.0,North,5.8,-,N/A,,Overcast,350,2004-01-09 18:40:00
2:00 PM,26.6,23.0,86,29.97,5.0,North,5.8,-,N/A,Snow,Light Snow,350,2004-01-09 19:00:00
2:20 PM,28.4,23.0,80,29.97,5.0,North,4.6,-,N/A,Snow,Light Snow,350,2004-01-09 19:20:00
2:40 PM,28.4,24.8,86,29.97,7.0,North,3.5,-,N/A,,Overcast,360,2004-01-09 19:40:00
3:01 PM,30.2,24.8,80,29.98,3.0,NNE,3.5,-,N/A,Snow,Light Snow,30,2004-01-09 20:01:00
3:20 PM,30.2,24.8,80,29.98,7.0,NE,4.6,-,N/A,Snow,Light Snow,50,2004-01-09 20:20:00
3:40 PM,26.6,21.2,80,29.98,7.0,North,6.9,-,N/A,Snow,Light Snow,350,2004-01-09 20:40:00
4:00 PM,26.6,21.2,80,29.99,10.0,North,5.8,-,N/A,,Overcast,350,2004-01-09 21:00:00
4:20 PM,26.6,21.2,80,29.99,7.0,North,3.5,-,N/A,Snow,Light Snow,10,2004-01-09 21:20:00
4:40 PM,26.6,21.2,80,30.00,10.0,NE,3.5,-,N/A,,Overcast,40,2004-01-09 21:40:00
5:00 PM,26.6,21.2,80,30.00,10.0,North,3.5,-,N/A,,Overcast,360,2004-01-09 22:00:00
5:20 PM,26.6,21.2,80,30.00,10.0,NNE,4.6,-,N/A,,Overcast,20,2004-01-09 22:20:00
6:00 PM,26.6,21.2,80,30.01,10.0,NNE,4.6,-,N/A,,Overcast,30,2004-01-09 23:00:00
6:20 PM,26.6,21.2,80,30.01,10.0,NNE,4.6,-,N/A,,Overcast,20,2004-01-09 23:20:00
6:42 PM,26.6,21.2,80,30.01,10.0,NNE,4.6,-,N/A,,Overcast,20,2004-01-09 23:42:00
7:00 PM,26.6,21.2,80,30.01,10.0,North,5.8,-,N/A,,Overcast,10,2004-01-10 00:00:00
7:21 PM,26.6,21.2,80,30.02,10.0,Calm,Calm,-,N/A,,Overcast,0,2004-01-10 00:21:00
7:40 PM,24.8,19.4,80,30.01,10.0,NNE,4.6,-,N/A,,Overcast,20,2004-01-10 00:40:00
8:00 PM,24.8,19.4,80,30.01,10.0,Calm,Calm,-,N/A,,Overcast,0,2004-01-10 01:00:00
8:20 PM,24.8,19.4,80,30.02,10.0,North,4.6,-,N/A,,Overcast,10,2004-01-10 01:20:00
8:40 PM,24.8,19.4,80,30.03,10.0,North,4.6,-,N/A,,Overcast,10,2004-01-10 01:40:00
9:00 PM,24.8,19.4,80,30.04,10.0,North,3.5,-,N/A,,Overcast,10,2004-01-10 02:00:00
9:20 PM,24.8,19.4,80,30.04,10.0,North,4.6,-,N/A,,Overcast,10,2004-01-10 02:20:00
9:41 PM,24.8,19.4,80,30.04,10.0,North,3.5,-,N/A,,Overcast,360,2004-01-10 02:41:00
10:00 PM,24.8,19.4,80,30.05,10.0,North,4.6,-,N/A,,Overcast,350,2004-01-10 03:00:00
10:21 PM,24.8,19.4,80,30.05,10.0,North,4.6,-,N/A,,Overcast,350,2004-01-10 03:21:00
10:40 PM,24.8,21.2,86,30.05,10.0,North,4.6,-,N/A,,Overcast,350,2004-01-10 03:40:00
11:00 PM,24.8,21.2,86,30.06,10.0,Calm,Calm,-,N/A,,Overcast,0,2004-01-10 04:00:00
11:20 PM,24.8,21.2,86,30.07,10.0,Calm,Calm,-,N/A,,Overcast,0,2004-01-10 04:20:00
11:40 PM,24.8,21.2,86,30.06,7.0,North,5.8,-,N/A,,Overcast,360,2004-01-10 04:40:00